Location: Aranbee
(34.0885°N, 118.2342°W)
Time: 11:54:49
(UTC+00:00)

Vanguard 3 - All Passes

Search period start: 30 November 2020 00:00
Search period end: 10 December 2020 00:00
Orbit: 508 x 3262 km, 33.3° (Epoch: 29 November)

Date Brightness Start Highest point End Pass type
(mag) Time Alt. Az. Time Alt. Az. Time Alt. Az.
30 Nov - 03:09:15 10° SW 03:12:47 27° SSE 03:15:57 10° E visible
30 Nov - 05:20:09 10° W 05:23:48 78° S 05:28:20 10° E night (unlit)
30 Nov - 07:30:56 10° W 07:35:15 65° S 07:42:11 10° ESE night (unlit)
30 Nov - 09:42:01 10° W 09:47:25 31° SSW 09:56:03 10° SE visible
30 Nov - 11:57:47 10° SW 12:00:55 12° SSW 12:04:32 10° S visible
01 Dec - 01:56:00 10° SSW 01:59:06 17° SSE 02:01:42 10° ESE visible
01 Dec - 04:06:31 10° WSW 04:10:16 57° SSE 04:14:01 10° E visible
01 Dec - 06:17:40 10° W 06:21:28 79° S 06:26:47 10° E night (unlit)
01 Dec - 08:28:28 10° W 08:33:07 41° SSW 08:40:38 10° SE night (unlit)
01 Dec - 10:41:07 10° WSW 10:45:51 17° SSW 10:52:14 10° SSE visible
02 Dec - 00:44:10 10° SSE 00:45:07 10° SSE 00:46:00 10° SSE daylight
02 Dec - 02:52:37 10° SW 02:56:44 35° SSE 03:00:09 10° E visible
02 Dec - 05:04:11 10° W 05:07:50 81° S 05:12:02 10° E night (unlit)
02 Dec - 07:15:09 10° W 07:19:11 55° SSW 07:25:16 10° ESE night (unlit)
02 Dec - 09:26:35 10° WSW 09:31:12 24° SSW 09:38:00 10° SSE visible
03 Dec - 01:38:39 10° SSW 01:43:01 23° SSE 01:46:21 10° ESE visible
03 Dec - 03:50:17 10° WSW 03:54:17 66° S 03:57:57 10° E visible
03 Dec - 06:01:48 10° W 06:05:28 72° S 06:10:15 10° ESE night (unlit)
03 Dec - 08:12:50 10° W 08:17:00 32° SSW 08:23:14 10° SE night (unlit)
03 Dec - 10:27:07 10° SW 10:29:36 12° SSW 10:32:27 10° S visible
04 Dec - 00:24:57 10° SSW 00:29:00 16° SSE 00:32:08 10° ESE daylight
04 Dec - 02:35:58 10° WSW 02:40:43 45° SSE 02:44:20 10° E visible
04 Dec - 04:48:08 10° W 04:51:53 82° S 04:55:49 10° E night (unlit)
04 Dec - 06:59:23 10° W 07:03:07 45° SSW 07:08:24 10° SE night (unlit)
04 Dec - 09:11:29 10° WSW 09:15:03 17° SSW 09:19:46 10° SSE night (unlit)
04 Dec - 23:12:43 10° S 23:14:35 11° SSE 23:16:17 10° SE daylight
05 Dec - 01:21:25 10° SW 01:26:57 31° SSE 01:30:48 10° E visible
05 Dec - 03:33:59 10° WSW 03:38:19 74° S 03:41:58 10° E visible
05 Dec - 05:45:52 10° W 05:49:30 64° S 05:53:50 10° ESE night (unlit)
05 Dec - 07:57:20 10° WSW 08:00:53 24° SSW 08:05:49 10° SSE night (unlit)
06 Dec - 00:06:52 10° SSW 00:12:52 23° SSE 00:17:03 10° ESE daylight
06 Dec - 02:19:16 10° WSW 02:24:41 56° SSE 02:28:30 10° E visible
06 Dec - 04:32:01 10° W 04:35:56 80° S 04:39:42 10° E visible
06 Dec - 06:43:36 10° W 06:47:05 35° SSW 06:51:36 10° SE night (unlit)
06 Dec - 08:57:18 10° SW 08:58:54 11° SSW 09:00:43 10° S night (unlit)
06 Dec - 22:52:48 10° S 22:58:23 17° SSE 23:02:34 10° ESE daylight
07 Dec - 01:04:10 10° SW 01:10:52 41° SSE 01:15:09 10° E visible
07 Dec - 03:17:35 10° W 03:22:20 80° S 03:26:02 10° E visible
07 Dec - 05:29:54 10° W 05:33:31 54° SSW 05:37:28 10° ESE night (unlit)
07 Dec - 07:42:01 10° WSW 07:44:48 17° SSW 07:48:17 10° SSE night (unlit)
07 Dec - 21:40:44 10° SSE 21:43:28 11° SSE 21:45:54 10° SE daylight
07 Dec - 23:48:58 10° SW 23:56:41 30° SSE 00:01:38 10° E daylight
08 Dec - 02:02:30 10° WSW 02:08:39 66° S 02:12:41 10° E visible
08 Dec - 04:15:49 10° W 04:19:58 76° S 04:23:38 10° E visible
08 Dec - 06:27:52 10° W 06:31:02 27° SSW 06:34:48 10° SE night (unlit)
08 Dec - 22:34:01 10° SSW 22:42:06 23° SSE 22:47:35 10° ESE daylight
09 Dec - 00:46:54 10° WSW 00:54:44 51° SSE 00:59:26 10° E daylight
09 Dec - 03:01:05 10° W 03:06:21 83° S 03:10:08 10° E visible
09 Dec - 05:13:52 10° W 05:17:30 45° SSW 05:21:10 10° ESE night (unlit)
09 Dec - 07:27:18 10° SW 07:28:42 11° SSW 07:30:14 10° S night (unlit)
09 Dec - 21:20:00 10° S 21:27:04 16° SSE 21:32:26 10° ESE daylight
09 Dec - 23:31:07 10° SW 23:40:27 39° SSE 23:46:01 10° E daylight
